Regional Weather Roundup
Issued by NWS

Home | Current Version | Previous Version | Graphics & Text | Print | Product List | Glossary On
Versions: 1 2 3 4 5 6 7 8 9 10 11 12 13 14 15 16 17 18 19 20 21 22 23 24 25 26 27 28 29 30 31 32 33 34 35 36 37 38 39 40 41 42 43 44 45 46 47 48 49 50
000
ASUS43 KLMK 182210
RWRKY
KENTUCKY REGIONAL WEATHER ROUNDUP
NATIONAL WEATHER SERVICE LOUISVILLE KY
500 PM EST WED JAN 18 2017

NOTE "FAIR" INDICATES FEW OR NO CLOUDS BELOW 12,000 FEET
WITH NO SIGNIFICANT WEATHER AND/OR OBSTRUCTIONS TO VISIBILITY.

KYZ001>023-026-027-061>063-070>075-182300-
WESTERN AND SOUTH CENTRAL KENTUCKY

CITY           SKY/WX    TMP DP  RH WIND       PRES   REMARKS
PADUCAH        PTSUNNY   46  38  73 CALM      30.14F
HENDERSON      MOCLDY    43  36  75 S6        30.15F
OWENSBORO      MOCLDY    43  36  76 CALM      30.16F
HOPKINSVILLE   CLOUDY    47  40  76 E3        30.14S
BOWLING GREEN  CLOUDY    49  38  65 CALM      30.16F
GLASGOW        CLOUDY    49  38  65 CALM      30.15S
$$

KYZ024-025-028>034-038-045-046-053-182300-
NORTH CENTRAL KENTUCKY

CITY           SKY/WX    TMP DP  RH WIND       PRES   REMARKS
LOUISVILLE/SDF CLOUDY    45  35  68 CALM      30.15F
LOUISVILLE/LOU CLOUDY    44  35  70 N5        30.15F
FORT KNOX      PTCLDY    43  35  74 CALM      30.13F
$$

KYZ035>037-039>044-047>052-055>060-089>105-182300-
NORTHEAST KENTUCKY

CITY           SKY/WX    TMP DP  RH WIND       PRES   REMARKS
LEXINGTON      CLOUDY    44  36  73 SW7       30.16S
COVINGTON      CLOUDY    41  36  82 S7        30.14S
FRANKFORT      CLOUDY    43  35  73 VRB5      30.15S
$$

KYZ054-064>069-076>088-106>120-182300-
SOUTHEAST KENTUCKY

CITY           SKY/WX    TMP DP  RH WIND       PRES   REMARKS
JACKSON        CLOUDY    44  37  76 W3        30.14S
LONDON         CLOUDY    49  36  61 NE3       30.12F
SOMERSET       CLOUDY    46  36  66 CALM      30.15S
MIDDLESBORO    CLOUDY    50  39  65 N6        30.13R
MONTICELLO     PTCLDY    49  39  68 CALM      30.16S
$$





USA.gov is the U.S. government's official web portal to all federal, state and local government web resources and services.